Theta_e
312 312 312 311 311 310 310 310 308 307 306 305 305 306 307 307 306 306 306 306 307 307 306 309 310 310 310 310 309 310 310 311 313 313 318 323 312 313 312 308 322 329 324 327 325 326 331 330 331 337 343 346 347 349 351 351 352 358 363 363 362 365 369 371 372 365 367 373 367 365 366 365 365 364 363 361 362 362 362 359 352 350 350 349 350 349 350 351
311 312 312 311 311 309 309 309 307 306 306 304 304 305 306 307 307 306 307 306 307 308 307 308 310 310 311 310 310 310 312 314 316 320 326 319 314 313 309 314 326 328 325 327 326 324 328 331 331 332 341 345 344 347 352 351 352 357 360 363 364 370 370 366 368 365 366 371 365 365 367 364 363 363 363 363 363 362 360 357 352 352 350 349 349 349 350 351
311 311 311 311 311 309 309 308 306 306 305 303 304 304 305 307 307 307 307 307 307 308 308 308 309 310 310 311 310 310 313 317 326 337 331 316 313 311 314 323 327 326 325 324 323 320 322 328 329 332 340 343 341 344 349 350 353 356 357 364 367 366 363 360 367 367 364 368 365 365 366 365 362 361 363 363 363 362 359 355 353 354 352 349 348 348 350 351
311 311 311 310 310 309 309 308 306 305 304 303 303 304 305 306 307 308 307 307 307 308 309 309 309 310 310 311 310 312 315 324 335 334 326 316 311 313 323 329 327 326 325 321 320 318 318 325 330 333 339 341 339 340 344 347 351 354 355 362 365 360 360 361 367 366 361 362 364 365 365 365 362 359 362 363 363 364 360 354 353 353 351 349 348 348 350 351
310 311 311 310 310 309 307 306 306 305 303 303 303 303 304 306 307 308 308 307 307 308 309 309 309 309 310 311 311 314 320 330 330 327 325 316 311 316 324 327 326 326 324 321 321 320 323 328 333 336 340 342 341 341 344 343 345 351 353 355 355 353 356 360 364 363 360 360 363 366 365 364 361 359 360 361 363 363 358 353 351 350 349 348 348 348 350 351
310 310 310 310 309 308 306 305 304 304 303 303 303 304 305 306 307 309 308 308 308 308 309 309 309 309 311 311 312 317 323 327 325 325 325 317 313 320 321 322 324 323 322 323 321 323 327 331 336 339 340 342 342 345 346 343 343 350 352 348 348 349 350 356 363 362 360 362 363 365 364 360 360 361 358 358 362 362 355 351 349 348 348 347 348 348 349 350
310 310 310 309 307 305 305 304 304 303 303 303 304 305 306 307 308 309 309 308 308 308 309 309 309 309 311 311 315 320 325 329 325 324 326 319 315 320 319 319 321 321 320 321 319 321 326 332 339 341 340 342 344 345 345 344 345 350 351 348 347 347 347 350 361 363 360 364 363 360 361 361 362 363 359 357 360 359 353 350 348 348 347 347 348 348 349 349
310 310 309 307 304 303 303 303 304 304 304 305 305 306 307 308 309 309 309 309 308 309 310 309 308 310 312 313 319 324 328 331 325 323 325 320 318 321 321 318 319 321 318 317 319 320 324 331 337 338 340 344 343 342 342 342 345 348 349 348 346 346 346 345 358 364 360 360 359 360 362 361 362 361 360 358 358 356 351 349 348 347 347 348 348 348 349 349
309 308 308 305 303 304 304 304 305 306 306 306 307 308 308 309 310 310 310 309 309 309 310 309 309 310 313 316 320 325 326 325 323 324 323 320 319 320 321 319 318 321 317 316 318 319 323 327 332 336 339 341 338 336 338 341 347 348 347 347 345 346 344 343 358 363 358 358 358 362 363 362 360 359 360 359 356 354 349 349 349 348 348 348 348 348 349 348
309 307 307 306 305 305 305 306 307 307 307 308 309 309 309 310 311 311 310 310 309 310 310 309 310 311 315 317 319 324 322 319 322 325 323 321 319 319 322 321 318 319 317 314 314 319 324 325 327 331 333 335 334 334 336 340 344 341 339 340 339 341 336 337 357 361 357 358 358 361 362 362 359 359 365 360 354 352 349 350 349 348 349 349 348 348 348 348
309 308 308 307 307 307 307 308 308 309 309 309 309 310 310 311 312 312 312 311 310 310 310 309 310 313 317 318 319 322 321 319 321 324 323 321 320 321 322 322 320 318 317 315 313 317 322 324 325 327 330 332 332 332 333 334 336 334 333 333 333 334 329 335 358 359 358 359 357 360 361 361 358 360 368 360 354 351 349 351 349 349 350 349 348 347 348 347
310 309 309 309 309 309 309 309 309 310 310 310 310 310 311 313 313 314 313 312 310 311 311 310 311 315 318 321 323 321 320 322 324 324 324 321 320 322 322 322 321 319 319 316 314 315 320 324 323 327 331 329 330 332 332 331 331 332 332 332 335 334 327 340 361 358 358 360 356 357 358 361 361 361 364 357 353 352 349 351 350 350 349 349 349 347 347 347
310 310 311 311 311 310 310 310 310 311 310 310 311 311 313 314 314 315 314 313 312 311 311 310 312 315 319 328 327 320 320 324 325 325 325 323 321 323 322 322 322 320 320 317 316 314 317 321 321 324 327 326 329 330 330 330 330 332 332 331 333 333 329 340 359 358 358 358 355 354 354 360 364 358 359 356 352 352 350 351 350 350 350 349 349 346 347 346
310 311 311 311 311 311 311 311 311 311 311 311 311 312 315 315 315 316 316 314 312 312 311 310 313 316 322 330 324 320 322 323 325 326 325 324 323 325 324 323 323 321 320 318 317 316 314 317 319 322 323 325 327 327 331 332 331 332 330 333 331 326 327 334 352 361 359 356 355 353 351 362 366 357 357 355 352 352 351 350 350 350 350 350 349 346 346 346
311 311 311 311 311 311 311 312 311 311 311 311 312 314 315 315 317 318 316 314 313 312 311 311 314 319 329 333 322 320 322 322 324 324 323 324 325 327 326 324 324 322 321 319 318 317 315 316 319 322 323 327 330 330 337 337 337 336 327 334 333 322 327 332 347 361 359 356 357 351 351 363 366 357 356 354 351 353 351 350 350 350 350 350 349 346 345 345
311 311 311 311 311 311 311 312 312 312 311 311 313 314 315 317 317 317 316 313 312 311 313 316 318 320 329 333 324 321 322 321 322 320 321 322 323 325 326 327 326 323 322 320 319 318 317 317 321 324 324 330 336 336 340 339 341 345 330 328 330 323 326 327 339 358 359 357 359 354 356 366 363 356 357 354 352 353 352 351 350 350 350 349 348 345 345 345
311 311 310 311 311 311 311 312 312 312 312 312 314 315 316 318 316 315 314 313 313 314 317 321 321 320 323 324 323 321 321 320 318 317 319 321 322 322 325 328 328 325 324 321 319 319 318 320 325 332 331 332 338 339 340 336 336 342 334 327 328 324 324 321 330 351 357 358 361 358 360 364 359 356 357 355 353 353 353 352 350 350 350 349 349 346 344 345
310 310 310 311 311 311 311 312 312 312 312 312 314 316 317 317 316 316 315 314 314 316 320 322 321 322 321 320 320 319 319 318 316 315 314 319 323 322 323 325 324 324 323 322 321 319 321 326 331 339 340 335 335 336 338 339 336 334 330 327 327 326 324 323 324 337 352 359 360 360 360 361 358 356 358 355 353 354 354 352 350 350 349 349 349 346 344 344
310 310 310 310 311 311 311 312 312 312 312 314 315 315 316 317 317 317 316 316 317 319 325 327 326 325 321 321 321 318 318 316 314 314 312 316 320 319 319 321 323 324 326 327 325 324 328 335 337 337 339 340 337 336 339 343 338 332 329 326 326 326 326 328 325 328 348 361 360 361 360 359 359 358 359 356 354 355 354 353 351 350 349 349 348 348 345 343
310 310 310 311 311 311 312 312 312 312 313 314 314 314 316 317 319 320 317 318 319 318 320 327 330 327 321 320 319 317 316 313 312 313 312 314 315 315 315 319 326 327 329 332 329 328 332 338 340 338 340 347 342 337 338 338 334 331 331 329 328 328 326 330 331 328 343 355 356 361 361 359 358 357 359 357 355 356 355 354 353 351 350 349 349 348 347 344
310 310 311 311 311 311 312 312 312 313 313 314 314 316 317 315 317 318 315 316 317 313 315 321 324 323 318 316 316 314 314 314 312 312 313 314 315 314 315 321 329 329 329 333 331 331 334 336 340 343 345 347 341 337 335 333 332 331 331 330 328 329 328 330 331 328 333 337 336 345 355 359 359 356 357 357 356 356 356 355 353 353 351 349 349 349 349 346
311 311 311 311 312 312 312 312 312 313 314 314 314 316 316 314 314 314 312 315 315 312 314 316 314 315 315 314 314 313 313 315 314 313 314 314 315 314 317 325 330 329 328 332 336 336 337 338 340 344 342 339 337 335 333 332 332 332 331 329 328 330 331 332 332 328 325 325 326 332 337 344 352 353 355 357 357 356 355 355 354 352 352 350 349 349 349 348
311 312 312 312 312 312 312 312 312 313 314 314 315 315 315 315 315 313 311 314 315 313 314 315 314 315 316 313 313 314 314 315 313 314 315 314 315 314 320 328 328 329 329 333 340 339 338 340 342 342 337 336 336 334 334 333 333 333 332 329 328 330 328 328 333 330 324 324 326 326 327 333 342 349 355 355 355 356 354 354 353 352 352 351 349 348 349 349
312 312 312 312 312 312 313 312 312 313 313 314 315 315 315 316 316 313 314 316 317 315 314 313 314 316 317 314 312 314 315 313 312 314 316 316 316 314 319 327 327 327 329 334 340 339 340 339 337 338 336 335 337 335 334 333 334 336 334 331 329 330 328 329 332 329 327 326 325 328 335 351 360 355 356 356 354 356 354 354 354 353 352 351 350 349 349 350
313 313 313 313 313 313 312 312 311 312 314 315 314 315 315 316 315 313 317 321 319 317 314 311 312 315 314 312 311 312 312 312 312 313 316 317 316 316 316 320 325 326 326 332 337 337 339 336 331 333 334 334 335 336 335 333 332 333 334 334 332 332 332 332 329 324 323 322 324 328 329 344 368 365 358 358 357 357 355 355 355 354 353 352 351 350 349 349
313 313 313 313 314 313 313 313 312 312 315 315 314 315 315 316 316 313 319 324 319 317 316 311 311 313 311 310 310 311 312 312 312 313 317 317 315 316 317 316 322 324 325 331 335 335 335 331 329 332 332 332 332 333 335 333 330 329 333 335 333 333 332 331 328 322 321 321 323 325 318 322 347 363 363 360 358 359 356 355 355 353 353 353 352 350 349 349
314 314 314 314 314 313 315 315 312 313 316 315 314 316 315 316 315 311 320 328 321 315 315 311 310 311 310 310 310 312 313 312 313 314 316 318 314 315 317 316 318 318 320 328 330 330 328 324 330 333 329 330 330 329 332 332 329 329 333 334 333 334 331 330 326 320 324 324 321 327 323 317 328 350 363 361 360 361 358 356 354 353 352 352 351 350 349 349
314 314 314 315 314 313 314 313 312 315 316 314 314 315 316 315 314 315 323 328 321 314 313 312 310 310 310 309 310 313 312 312 315 314 312 315 314 315 317 317 320 318 317 325 328 325 320 319 329 334 329 329 330 331 332 329 330 332 331 330 330 331 330 328 323 321 324 320 318 327 326 319 328 347 358 360 361 361 361 358 354 353 352 351 350 349 349 349
315 315 316 315 314 314 313 312 312 315 314 314 315 316 315 313 315 323 326 322 316 312 312 311 310 311 311 311 311 312 312 312 314 313 313 315 313 314 316 315 319 319 313 318 324 320 315 317 326 329 326 328 330 331 329 328 329 330 328 327 327 327 327 327 324 321 321 317 317 323 320 316 324 342 354 357 358 358 359 358 354 354 352 350 350 349 347 348
315 316 316 316 315 314 313 312 313 314 314 315 316 315 315 317 326 330 324 318 314 311 312 311 311 311 311 311 311 312 312 312 313 314 314 314 313 314 314 313 316 318 317 318 318 317 316 318 321 320 319 321 322 323 323 327 328 325 326 325 324 328 328 333 337 326 317 320 322 321 318 314 317 335 352 355 357 359 359 358 356 354 353 351 350 349 347 347
316 317 317 317 316 315 314 314 314 315 316 316 316 315 315 322 334 332 321 315 313 312 312 311 312 312 311 312 312 311 312 312 314 316 316 313 312 313 314 315 318 320 321 319 316 316 319 318 318 318 319 317 316 318 318 320 321 321 328 326 323 329 329 329 334 323 315 323 329 324 319 314 313 325 340 344 345 350 354 356 357 355 354 353 350 348 348 346
317 318 318 318 317 316 316 317 317 317 318 317 317 321 324 324 326 324 318 315 313 312 312 312 313 312 313 313 312 311 312 313 313 315 316 314 311 311 312 313 315 317 318 316 316 317 317 316 315 316 320 316 315 320 318 317 318 319 328 328 322 326 325 322 326 322 320 324 324 322 318 313 317 325 336 340 337 337 344 349 351 354 354 353 352 350 349 347
317 318 319 319 319 318 317 318 318 318 320 318 317 325 331 326 320 319 318 314 311 311 312 313 311 311 313 313 311 312 313 312 313 314 314 313 312 312 312 310 311 315 317 316 316 317 314 316 317 315 317 315 314 319 317 316 319 317 322 325 323 324 322 323 327 324 322 321 319 320 318 314 321 330 338 343 339 337 340 341 342 348 353 354 353 351 350 348
319 319 319 319 319 318 318 318 318 319 319 315 318 325 325 320 320 320 319 314 313 313 312 311 311 313 313 311 310 313 314 312 312 313 313 314 315 314 313 311 310 314 320 318 317 317 316 316 316 313 314 314 314 315 314 314 316 316 320 323 325 329 326 324 327 324 320 320 318 316 315 314 322 332 339 342 340 339 339 338 338 341 347 353 354 352 351 350
320 320 319 318 317 317 317 318 318 319 316 314 320 324 318 315 317 318 316 315 314 313 312 311 312 316 315 312 312 311 313 314 311 312 313 312 314 314 312 312 310 312 318 318 316 317 318 314 312 314 313 312 314 314 313 314 316 316 319 320 320 325 327 323 326 327 323 321 318 315 317 321 325 330 335 339 339 339 338 337 338 338 340 348 354 354 352 350
321 320 318 316 316 317 316 318 318 317 317 318 320 320 315 313 313 313 314 314 312 311 313 313 312 315 315 314 314 311 312 314 312 314 314 311 311 311 311 311 310 311 315 316 315 315 318 314 311 315 318 314 313 313 313 314 317 320 319 319 317 318 322 321 323 328 326 318 317 322 327 329 331 330 330 337 340 338 338 337 338 338 338 342 348 352 352 351
321 319 317 316 317 316 315 318 316 316 320 321 319 318 316 313 310 311 314 313 310 311 316 317 312 312 314 313 312 312 313 313 312 316 314 312 312 310 310 312 311 311 312 313 313 312 315 316 313 313 316 316 313 312 315 313 315 320 319 317 317 316 321 324 323 327 327 318 318 330 333 329 330 329 329 339 342 337 338 338 337 338 337 339 342 344 348 351
320 319 318 315 315 315 317 317 314 318 322 321 322 320 315 312 311 311 312 311 309 312 315 315 312 311 312 314 312 310 313 314 314 316 314 313 313 310 310 311 312 311 311 312 315 314 313 314 315 314 314 316 314 313 318 316 313 317 316 314 317 319 322 326 322 320 323 322 320 327 333 329 325 323 328 341 342 338 338 337 337 338 337 338 339 339 343 348
320 323 320 315 315 316 316 315 315 322 324 320 325 323 313 312 313 311 311 311 310 312 313 312 312 312 312 312 311 310 312 313 313 315 315 312 312 311 310 310 311 312 311 313 314 316 316 314 314 316 313 312 316 316 316 315 312 313 313 312 315 319 320 322 322 320 323 328 325 326 333 334 326 321 329 341 341 337 338 337 337 338 337 336 337 337 339 343
320 327 322 313 315 317 315 314 317 325 325 319 321 319 312 313 312 310 312 311 310 311 311 311 312 313 311 311 311 311 311 311 312 313 312 311 311 311 310 309 311 312 312 313 312 314 320 317 312 315 315 313 316 315 312 311 311 311 311 311 311 314 317 320 321 319 323 330 332 335 339 332 324 324 333 341 339 336 336 336 336 336 335 336 335 334 336 338
321 328 322 314 315 316 316 317 319 323 324 320 316 314 314 314 311 311 313 311 311 310 309 311 312 312 312 312 312 312 312 312 312 312 312 312 312 313 311 310 311 312 315 316 313 314 319 320 317 316 314 313 313 312 311 310 310 310 310 311 310 311 319 326 323 317 322 328 329 337 340 329 323 331 336 337 337 335 335 334 334 334 334 335 334 333 333 335
324 323 317 314 314 314 316 320 323 322 320 317 314 313 315 315 311 311 313 312 312 311 311 311 311 311 312 312 313 314 316 316 313 312 313 312 312 313 311 311 312 314 317 316 313 316 321 321 319 316 313 312 311 310 312 311 310 311 310 310 311 310 315 324 323 317 323 325 322 334 340 329 325 334 336 335 335 334 334 333 333 332 332 332 333 332 331 332
333 324 316 313 313 315 317 319 323 324 320 315 312 312 312 311 310 311 312 313 313 312 313 312 311 313 312 312 314 315 316 316 314 314 314 313 313 312 312 314 315 314 315 314 311 316 320 317 315 318 321 321 315 312 313 311 310 312 311 310 311 310 311 316 318 322 326 321 319 332 339 330 326 333 336 334 333 333 333 332 332 331 331 331 330 331 331 331
333 328 325 317 312 315 320 320 321 322 320 316 313 313 312 310 311 312 311 313 313 312 314 312 311 313 312 312 314 313 314 317 316 314 314 315 315 314 314 316 316 315 314 314 312 310 312 315 317 318 321 321 318 319 318 314 312 312 311 311 311 310 311 313 317 325 329 321 318 329 335 329 323 328 335 335 332 332 331 330 331 330 330 330 330 330 330 330
326 325 326 321 313 314 318 320 321 321 319 317 314 314 315 313 311 311 311 312 311 312 314 313 312 312 312 313 314 312 314 317 316 315 316 316 316 315 314 314 316 318 318 319 321 317 313 316 321 323 321 319 321 322 320 316 313 312 312 310 311 311 311 314 319 324 325 320 318 326 328 322 320 329 336 335 331 331 330 328 328 328 328 329 329 330 329 329
325 324 325 325 319 315 316 317 320 324 323 322 318 314 315 316 313 312 312 312 311 311 312 313 314 314 313 314 316 315 314 315 316 318 318 318 317 314 314 315 316 319 318 319 326 327 320 316 320 326 323 320 322 320 317 317 314 311 312 310 311 312 311 315 321 321 321 319 322 330 327 318 324 335 336 333 332 331 329 329 327 327 327 327 328 329 329 328
325 323 321 324 322 320 320 316 317 322 321 320 318 314 314 315 315 314 314 313 311 312 314 313 314 316 316 316 317 316 316 317 318 318 316 317 319 316 314 314 315 318 318 316 322 328 324 315 316 319 316 316 321 317 314 316 313 310 311 311 312 312 312 315 317 316 320 324 325 331 328 323 330 338 334 332 333 330 328 328 326 326 326 326 326 328 327 327
321 320 317 318 319 320 320 317 316 319 320 322 320 316 314 315 315 316 316 315 312 313 316 315 313 315 317 318 319 318 318 319 318 317 317 317 319 319 316 313 314 317 317 315 319 325 324 316 313 314 313 313 316 314 312 314 312 311 312 312 311 312 312 314 316 315 319 322 321 322 325 329 334 335 332 331 331 329 327 327 325 324 325 325 325 326 326 326
322 322 318 318 319 320 319 319 318 317 319 326 324 317 316 316 316 315 314 316 315 313 317 317 314 315 317 319 323 321 319 321 318 316 317 316 317 318 318 316 315 316 317 315 316 319 322 319 315 315 314 312 312 312 312 313 312 312 313 311 310 311 312 312 316 320 323 325 324 323 327 333 331 330 331 330 328 328 326 325 325 324 324 324 323 324 325 325
321 320 320 325 325 323 323 323 322 320 320 324 322 317 317 317 316 315 314 316 316 314 316 317 315 315 316 319 323 319 318 322 321 317 316 316 317 318 317 316 315 316 318 317 314 316 319 318 318 321 317 311 312 314 312 312 312 311 312 313 312 314 317 315 318 327 335 335 331 328 331 333 328 326 330 328 326 327 326 325 326 324 323 324 323 323 324 325
315 313 317 327 327 322 322 322 322 324 323 322 320 318 318 317 315 316 314 314 316 316 317 317 316 317 318 319 319 316 317 321 321 320 319 318 318 319 317 316 315 315 318 317 314 318 321 316 317 324 319 310 311 314 312 313 313 312 314 315 314 316 319 319 323 329 333 335 333 332 333 332 327 325 328 328 328 328 327 326 326 324 324 324 323 323 323 324
316 314 314 323 325 319 320 322 322 322 320 318 319 318 317 316 316 317 316 314 315 316 315 316 317 318 319 319 317 317 318 320 320 319 319 317 317 317 317 318 316 315 318 317 313 316 322 319 316 320 319 312 311 313 313 313 311 313 317 314 312 317 320 323 328 328 328 330 333 334 333 329 326 325 326 328 329 329 328 327 326 325 324 324 323 323 322 323
Wind_Speed
20 19 19 19 19 18 18 18 18 17 16 17 17 16 15 13 13 12 13 15 16 16 13 11 10 12 13 12 12 11 12 12 11 7 8 8 8 9 7 12 16 19 22 21 21 17 10 8 8 10 9 3 1 1 3 3 2 1 0 1 2 2 3 2 4 3 3 3 5 6 5 6 7 4 2 2 4 4 3 3 5 5 7 12 18 25 26 24
20 19 19 19 20 19 18 18 18 18 17 17 17 17 17 15 13 12 12 13 15 15 13 11 9 12 14 14 12 11 13 12 10 9 10 6 5 12 12 14 19 24 25 23 23 20 12 7 9 9 6 2 1 1 3 3 3 3 1 1 3 3 3 2 2 4 3 4 5 6 5 5 7 6 3 4 5 4 4 4 7 9 10 14 21 26 23 23
20 20 20 20 20 19 19 19 18 18 18 17 17 18 18 16 15 13 12 12 13 13 13 11 9 12 15 15 12 12 12 9 5 6 5 2 11 16 17 18 21 26 24 22 24 21 16 13 12 8 4 2 1 2 3 2 3 3 1 1 4 4 4 4 3 4 2 6 9 6 4 4 6 6 3 5 7 5 5 6 8 10 11 14 18 21 21 22
21 20 20 20 20 19 19 19 18 18 19 19 19 19 18 18 16 14 12 11 11 12 12 12 10 11 14 14 12 11 9 4 2 3 4 1 16 20 20 20 22 24 21 20 20 16 17 17 11 5 4 2 1 1 2 3 2 2 3 3 4 1 3 4 2 2 2 7 9 6 5 5 6 5 4 8 8 4 6 7 8 13 16 16 16 18 19 20
21 21 20 20 20 19 19 19 18 19 19 20 20 20 20 19 17 15 13 10 10 10 11 11 10 10 12 13 10 9 6 1 2 2 2 4 18 22 20 20 21 21 18 19 16 14 17 15 8 4 3 2 1 2 2 4 2 2 4 5 6 4 5 4 1 4 5 6 7 7 6 6 6 5 6 11 8 5 6 6 8 13 17 19 18 17 17 17
22 21 20 20 20 19 20 19 19 20 20 20 20 21 21 20 18 16 12 10 9 9 10 10 9 9 11 11 8 6 2 1 3 2 2 8 19 21 18 18 20 18 17 19 16 14 13 9 6 4 3 2 3 4 3 4 3 3 4 4 7 6 6 4 3 6 6 7 8 7 5 6 7 5 7 10 6 3 6 7 11 14 17 22 21 17 16 15
22 22 21 21 20 20 20 20 20 21 21 21 21 21 21 21 20 16 12 9 8 8 9 9 7 7 9 9 5 3 2 3 5 3 4 9 19 19 16 17 20 19 17 18 14 10 8 8 7 5 5 2 3 5 4 3 4 4 4 5 8 7 7 6 4 7 7 9 8 6 6 8 9 6 7 8 4 6 9 9 12 14 17 21 19 15 15 15
22 22 21 21 20 20 21 21 22 22 22 23 22 22 21 21 20 16 11 9 7 7 8 6 4 6 7 5 2 3 1 4 3 6 6 12 19 19 16 17 21 21 17 17 14 9 7 9 8 4 4 4 3 3 3 2 2 5 6 6 6 6 8 7 4 7 7 6 6 6 7 8 7 5 7 8 5 7 10 12 13 14 16 17 15 14 14 13
22 22 21 21 21 21 21 22 23 24 24 25 24 24 23 21 19 16 10 8 6 5 6 4 4 4 5 2 2 1 2 1 2 6 6 14 19 19 17 16 21 22 15 15 16 12 7 6 7 5 5 5 2 2 2 0 2 5 6 6 5 7 9 6 5 8 7 4 7 8 6 4 4 4 5 7 7 8 11 14 14 15 16 15 13 14 14 13
22 21 21 21 21 21 22 23 24 25 26 26 26 25 24 22 18 14 9 6 5 5 5 3 3 3 2 1 3 2 2 1 1 6 7 12 19 20 18 16 21 22 14 12 14 12 7 5 6 4 3 2 1 2 1 2 2 3 5 7 8 9 9 5 5 8 6 4 8 9 4 4 4 2 3 6 8 10 12 14 15 16 16 15 12 12 13 14
22 22 22 22 22 23 23 24 25 26 27 27 27 27 25 22 17 12 8 6 5 4 3 3 1 1 1 3 3 2 2 1 1 7 8 11 18 20 19 18 21 22 16 9 11 14 10 8 8 3 1 1 1 2 2 3 3 5 6 7 8 7 8 5 5 8 6 4 6 7 4 3 3 2 3 7 10 12 13 14 15 15 15 14 12 12 11 12
22 22 23 23 24 24 25 25 26 27 28 27 27 27 25 22 16 11 7 6 6 4 4 4 1 1 0 3 3 5 1 3 2 6 9 11 15 16 16 18 20 22 18 10 11 17 13 10 7 3 1 0 0 2 3 3 3 6 4 4 7 7 7 5 5 8 8 4 7 8 5 2 6 4 3 9 11 13 14 14 15 15 14 13 11 11 10 12
23 23 24 24 25 25 26 26 27 28 28 27 26 27 24 19 14 9 5 6 7 6 6 5 2 2 1 1 4 5 1 3 1 5 10 12 12 12 14 16 17 20 20 14 13 18 16 10 5 3 2 1 1 3 3 5 3 4 2 0 4 6 6 4 3 8 7 4 9 8 1 4 9 6 4 9 13 14 14 13 14 13 12 12 10 10 10 12
23 25 25 25 26 27 27 27 28 28 28 26 25 25 21 15 11 8 4 8 8 7 8 5 4 3 2 4 4 3 2 3 2 6 10 13 11 8 11 14 15 18 16 10 7 13 18 11 2 1 2 1 1 3 5 5 2 2 2 1 2 2 4 6 3 9 6 3 9 6 3 5 6 6 6 9 14 15 14 13 13 12 12 11 10 10 10 12
24 25 25 26 26 27 28 27 28 27 27 26 24 23 18 11 9 7 2 8 8 9 9 6 4 3 2 5 4 2 3 3 4 7 9 14 12 6 10 14 14 15 13 9 4 6 16 12 2 1 2 1 0 3 4 4 3 2 1 2 3 0 4 7 2 10 6 3 8 5 2 5 4 6 9 9 13 15 14 14 13 13 13 12 10 10 10 11
25 25 25 26 26 27 28 28 27 27 27 25 22 20 14 8 6 3 4 7 9 10 8 5 5 4 2 3 2 1 3 2 4 4 7 14 14 8 9 11 10 10 9 8 5 3 12 10 3 3 1 1 1 0 2 4 4 3 2 2 2 1 3 5 1 5 4 4 6 5 2 3 4 6 11 10 12 13 12 13 14 14 14 13 11 9 10 10
26 26 26 25 26 26 27 27 26 26 25 23 20 15 8 6 7 9 10 10 11 9 6 4 4 2 1 4 2 1 1 3 5 3 6 13 15 10 9 8 6 8 5 3 5 3 7 6 2 3 0 0 2 2 2 2 3 3 2 0 1 1 2 4 3 2 2 5 7 7 5 4 4 4 11 11 12 12 12 13 14 13 13 12 11 10 10 11
27 27 26 26 26 26 27 26 25 25 23 20 17 9 7 9 10 11 13 13 9 6 4 2 2 1 2 4 2 2 4 7 7 5 5 10 15 14 9 6 7 9 5 2 1 2 4 2 2 2 1 1 3 4 3 3 2 2 1 1 2 2 2 3 3 1 3 3 5 7 7 8 4 3 10 11 13 13 12 13 13 13 13 12 11 10 10 12
28 28 27 27 26 26 26 25 24 24 20 17 11 6 7 7 6 5 9 10 4 2 1 1 2 2 2 4 4 6 9 9 8 6 5 8 14 13 6 7 9 9 4 2 1 3 4 2 2 2 2 3 3 5 6 5 5 5 3 2 1 2 2 4 4 4 5 4 4 6 7 10 6 5 9 11 12 12 10 10 10 11 11 11 11 10 10 12
29 29 28 28 27 26 25 23 23 21 15 14 9 5 4 4 3 2 1 2 3 3 3 4 5 2 3 4 4 8 9 5 3 3 5 8 12 11 3 4 6 5 3 4 3 3 4 3 2 4 4 4 5 6 6 5 4 4 2 1 2 2 3 4 5 6 4 5 5 7 8 11 7 6 9 11 12 11 11 11 11 11 11 11 12 12 11 11
29 29 28 28 27 26 24 22 21 16 10 11 9 4 2 2 2 3 4 4 5 5 5 5 5 5 7 6 4 5 4 3 3 3 4 8 10 9 1 3 5 2 1 4 3 2 3 5 5 4 6 6 5 5 4 2 2 2 1 1 3 2 4 5 5 6 2 3 5 5 7 10 8 7 9 11 12 13 14 14 14 14 13 11 13 14 12 9
30 29 29 27 27 25 22 21 17 10 7 8 8 5 2 2 3 3 2 4 6 4 5 4 2 5 8 8 8 2 2 2 5 5 3 6 5 5 1 4 6 3 1 1 4 3 2 4 5 5 6 4 2 4 5 2 2 2 2 1 2 3 3 5 5 3 1 2 4 3 4 8 9 8 10 13 14 14 14 16 16 16 15 13 14 14 12 10
31 30 28 26 26 23 21 19 11 5 7 6 7 5 2 6 7 2 2 2 6 4 3 3 2 4 5 5 6 4 3 2 1 4 4 6 3 4 4 4 5 3 2 3 5 5 3 4 7 6 5 4 1 2 5 3 1 2 3 2 2 2 1 3 4 3 1 2 5 4 2 6 7 5 9 13 14 12 13 15 13 13 16 16 16 14 13 13
31 29 26 25 24 21 21 15 4 5 8 2 6 6 7 8 6 1 1 0 4 5 4 4 4 4 3 2 5 8 3 3 3 3 3 6 3 2 4 4 4 3 2 4 6 6 4 5 4 5 5 5 3 0 4 3 1 2 4 4 3 2 3 4 4 6 5 4 4 2 2 5 4 3 6 9 10 11 10 11 10 11 13 12 12 12 12 13
30 28 25 24 23 21 19 7 2 8 7 3 4 6 10 9 4 1 2 2 3 5 3 2 1 2 3 1 5 6 1 1 4 4 3 6 6 3 2 2 3 3 3 4 6 4 4 5 3 5 3 4 3 3 3 5 1 2 4 7 7 5 5 6 3 5 6 4 2 3 4 5 4 3 5 5 8 10 9 11 12 11 12 10 10 12 12 12
29 26 24 24 23 21 13 2 3 10 4 4 4 8 10 8 3 2 3 3 2 3 2 0 1 1 2 0 3 3 3 1 4 1 2 5 5 4 2 0 1 3 5 4 3 2 2 3 3 5 3 4 3 4 3 6 4 1 4 7 8 7 6 6 2 1 1 2 3 4 4 4 5 3 6 6 9 10 9 12 14 12 12 11 11 12 12 12
28 25 24 23 21 19 8 0 7 8 2 1 7 10 11 7 0 3 2 4 2 2 1 1 0 1 0 1 1 4 3 4 2 3 3 2 1 3 4 2 1 2 3 3 2 2 2 1 2 3 3 4 2 3 4 7 6 3 5 6 7 7 6 5 4 3 3 3 4 4 3 2 4 5 5 6 8 8 8 11 13 13 13 13 12 13 13 14
27 25 23 21 17 13 6 4 8 3 2 6 8 11 12 4 2 3 4 3 1 1 0 1 1 0 1 2 2 3 2 3 2 1 3 7 4 2 3 3 5 3 2 5 3 4 1 3 3 4 3 3 4 6 7 8 5 6 6 7 6 7 7 5 5 4 2 2 5 6 1 2 4 6 2 5 7 8 11 13 14 14 14 14 15 15 15 15
25 23 21 18 13 9 7 7 5 2 5 9 9 12 10 2 2 3 4 2 1 1 1 1 2 2 2 2 3 3 1 1 2 2 4 9 7 4 3 3 5 5 3 5 4 4 0 2 6 6 3 4 5 6 6 9 6 4 4 6 4 4 5 4 5 4 1 2 4 6 1 2 4 5 1 4 5 9 12 12 12 12 13 15 16 16 16 13
24 21 19 15 10 7 7 7 4 5 9 10 11 14 8 1 3 4 2 1 1 1 0 1 1 1 3 3 2 4 3 2 2 3 5 5 7 6 2 1 5 5 2 5 3 2 3 2 3 4 1 5 5 4 4 9 7 1 3 3 3 2 1 3 2 3 3 1 6 7 4 4 2 5 0 2 5 9 11 10 10 11 13 16 16 15 16 14
22 19 15 13 9 6 5 4 5 8 9 11 14 11 4 2 4 5 2 0 1 2 2 1 2 2 4 4 1 3 4 4 5 5 5 4 7 8 5 3 4 5 4 4 2 2 6 5 1 1 2 2 1 1 1 0 1 2 2 2 3 1 3 4 3 2 4 3 6 5 4 7 2 3 3 7 9 7 6 9 13 15 16 16 15 14 14 14
19 16 13 13 11 7 5 5 8 10 11 12 12 6 4 3 3 2 1 2 1 2 1 2 3 2 2 3 3 4 4 4 5 5 4 3 6 6 4 2 1 3 2 2 1 3 4 2 4 5 3 6 5 2 2 5 5 4 3 4 4 1 2 1 1 1 3 4 5 3 3 4 3 3 4 10 12 12 10 7 8 14 16 15 14 14 12 11
16 15 13 13 11 9 8 8 10 10 11 11 7 4 5 4 3 1 3 2 0 1 1 1 2 3 3 4 4 4 6 4 4 5 4 3 5 3 3 4 2 3 3 1 1 3 1 2 7 7 5 6 5 3 2 2 3 3 3 4 4 2 2 2 3 0 1 4 3 2 1 1 2 1 6 11 10 11 12 13 12 9 11 12 12 12 12 12
14 13 13 13 12 10 9 8 8 8 7 7 4 5 6 4 1 3 3 2 2 2 3 2 2 4 5 4 1 1 6 5 4 5 4 3 5 4 4 8 8 3 3 2 2 2 3 1 6 5 3 6 4 2 1 3 1 1 3 4 4 4 4 3 3 3 3 3 2 2 2 2 3 3 4 8 8 10 12 14 15 13 8 6 8 8 9 11
11 8 11 14 15 14 11 8 7 6 4 5 5 5 6 2 2 2 2 3 3 3 3 3 4 5 5 4 3 3 4 3 4 6 6 4 4 3 4 5 7 4 3 3 1 1 4 1 5 4 2 3 5 4 2 2 1 2 1 4 3 3 4 2 3 5 4 2 1 1 2 1 3 3 6 11 11 13 15 16 17 17 15 7 4 8 10 11
7 6 11 16 18 17 13 9 7 5 3 5 6 5 3 1 1 1 1 2 2 2 3 5 6 5 4 4 5 6 5 4 3 4 5 4 3 4 4 3 5 5 3 3 1 1 3 1 6 7 5 4 4 4 2 4 2 1 2 2 2 3 5 3 1 1 3 5 2 1 1 5 3 2 10 16 15 16 18 17 17 15 16 14 6 5 9 11
7 5 7 14 22 21 13 8 8 6 4 5 6 3 0 0 1 2 2 2 1 1 3 4 3 3 3 3 4 6 5 4 4 3 3 3 3 5 5 4 3 5 2 3 2 1 3 0 4 5 5 7 5 2 2 4 2 2 2 2 3 2 3 3 2 2 4 4 1 3 4 5 5 3 10 17 19 19 18 16 16 16 17 16 13 11 8 11
6 3 3 13 24 21 11 8 9 6 4 6 6 4 1 2 3 3 3 3 1 3 5 3 1 2 2 3 3 6 4 2 3 3 3 3 2 3 4 4 3 7 6 2 3 1 3 1 4 2 2 8 7 4 2 7 6 3 2 1 1 3 1 1 2 2 2 3 1 3 3 5 5 4 8 15 17 17 16 15 16 17 17 15 13 16 15 10
6 3 2 15 25 17 9 9 9 5 7 5 4 3 1 2 4 5 5 2 2 4 5 2 2 3 4 3 1 4 6 4 2 3 3 2 1 2 4 2 3 7 8 4 4 1 2 3 2 6 5 5 6 6 4 7 7 4 3 3 3 3 2 1 2 2 3 3 3 2 3 4 3 5 6 9 12 13 14 14 14 14 14 13 12 14 15 12
5 3 2 19 24 12 7 9 6 6 6 3 1 1 2 2 4 7 7 5 4 4 4 3 3 3 4 4 3 3 6 5 3 3 2 3 1 1 3 3 3 5 6 6 5 1 2 4 1 6 7 4 3 3 3 3 5 5 5 5 4 3 1 2 2 2 2 3 3 3 3 1 4 4 5 7 9 10 12 12 11 11 12 12 13 13 13 14
4 3 4 20 22 9 6 8 6 4 3 2 2 1 3 3 3 7 9 7 5 4 4 4 4 4 2 4 4 3 3 4 4 4 3 3 2 1 3 3 3 4 3 5 5 3 1 2 2 3 5 5 4 2 2 4 5 5 4 4 3 3 2 4 2 2 1 3 3 4 5 1 3 3 4 6 7 8 10 11 10 11 13 13 13 15 14 14
4 3 6 21 20 7 7 7 2 3 4 2 3 2 4 4 4 6 7 6 5 5 5 4 4 4 3 3 3 3 4 3 4 4 3 3 4 1 4 4 3 2 3 3 2 1 1 3 4 2 1 1 2 1 4 4 4 5 5 4 3 2 3 4 2 1 2 3 1 2 5 3 3 2 4 6 7 7 8 9 10 11 12 13 14 15 16 15
3 1 7 21 15 6 8 6 3 4 4 2 2 3 5 4 4 6 6 6 5 3 5 5 3 4 4 4 3 3 4 3 4 3 2 2 4 3 6 7 3 2 4 2 1 2 2 3 4 2 3 4 4 3 5 5 4 4 4 5 4 3 2 2 3 2 2 3 2 2 4 3 3 2 5 6 8 8 8 10 11 10 10 13 15 15 15 16
1 3 5 18 18 11 8 3 1 4 3 3 4 5 5 4 5 7 6 6 5 3 4 4 3 3 4 3 4 3 2 3 3 3 2 2 2 4 8 10 7 4 3 0 1 1 1 2 3 3 3 4 4 4 4 5 5 3 3 6 5 6 6 2 1 3 3 1 1 3 3 2 2 3 6 7 9 10 11 11 11 11 11 12 13 14 14 15
2 1 3 12 18 14 5 3 3 3 3 4 5 5 5 4 4 6 5 5 5 4 3 2 3 3 3 3 5 6 5 4 2 2 3 2 2 4 8 10 8 5 5 2 2 2 2 2 3 4 3 2 2 1 2 3 4 2 3 7 7 8 8 3 2 4 2 1 1 3 2 3 3 5 8 9 10 11 12 13 12 11 12 12 11 13 13 14
2 2 2 6 10 8 2 1 4 4 2 3 4 4 5 3 2 5 5 5 4 5 5 3 3 3 4 5 6 6 7 6 3 2 3 2 3 2 6 8 8 8 8 8 6 4 4 2 2 5 5 5 5 4 3 1 2 2 4 7 6 7 6 3 3 2 2 1 1 2 2 2 7 9 10 10 11 11 11 13 13 12 12 12 12 12 13 13
2 2 2 2 3 4 4 5 4 3 2 2 2 3 4 3 2 4 5 3 3 4 4 4 5 3 3 4 5 4 5 5 5 4 2 2 2 2 5 6 8 11 10 8 6 3 5 3 1 5 4 4 6 2 2 2 2 1 3 5 6 6 6 5 3 1 3 4 1 4 1 4 7 9 10 9 9 9 10 11 11 11 11 11 12 14 15 15
2 1 1 1 1 2 2 3 4 5 5 3 3 2 3 4 4 2 3 3 3 4 3 4 7 5 3 3 5 2 3 4 5 3 1 2 2 3 5 4 6 9 8 5 4 3 5 1 1 3 2 0 2 1 2 3 1 1 1 3 5 6 6 4 2 2 3 5 2 4 3 6 7 8 8 8 8 7 8 9 8 9 11 12 13 15 16 16
2 1 2 1 3 2 0 2 3 6 7 4 4 3 2 4 4 1 2 2 4 5 4 4 4 6 5 4 5 4 1 2 2 2 1 2 2 2 3 2 3 6 6 4 4 3 4 1 2 3 3 2 1 1 3 3 2 4 4 3 4 5 4 3 3 3 1 3 2 2 5 7 7 7 6 7 6 5 5 7 8 11 12 13 13 14 14 15
2 1 2 2 4 2 2 4 4 5 5 4 3 2 2 3 3 2 2 3 2 3 4 5 3 3 5 5 6 5 4 6 5 2 2 1 1 0 0 0 2 4 5 3 3 3 3 2 2 3 4 1 3 2 2 1 1 2 5 5 4 5 4 3 4 4 4 2 2 3 5 5 6 6 5 5 4 4 6 9 10 10 12 12 13 13 13 12
2 1 1 3 3 4 3 3 3 4 4 3 2 1 2 2 1 2 3 2 2 2 2 6 5 3 4 6 6 4 5 6 6 5 6 4 2 3 2 2 3 1 4 2 2 3 3 2 1 4 4 1 3 1 1 2 2 4 5 6 5 5 3 3 4 5 4 3 3 4 4 4 6 7 4 3 4 6 7 8 8 8 10 11 11 12 11 11
4 2 2 4 2 4 3 2 3 3 1 2 1 1 1 1 1 2 3 3 3 2 4 7 6 3 4 4 3 4 6 7 7 7 6 5 4 4 3 2 4 3 2 1 1 1 3 3 1 2 3 2 4 2 3 1 5 2 3 2 2 3 3 1 4 6 4 1 2 3 4 4 6 7 5 4 5 5 5 5 6 7 8 9 9 10 10 10
Wind_Direction
345 344 343 344 343 343 342 341 343 347 353 356 359 3 2 356 352 351 347 344 345 347 347 344 346 351 347 339 331 324 321 313 304 276 233 260 245 203 173 170 170 159 164 169 161 148 128 137 152 148 150 157 216 165 183 213 222 217 187 198 254 224 211 214 184 173 158 160 150 167 172 140 141 138 155 127 68 89 81 51 94 62 77 111 122 135 143 144
344 343 342 342 341 341 341 340 342 345 349 354 359 1 1 358 351 348 345 342 343 344 347 340 332 338 344 345 334 326 324 315 300 267 247 256 190 173 158 159 167 162 165 166 159 151 136 151 163 146 137 135 204 156 162 193 186 210 246 182 244 219 218 257 186 165 150 156 152 164 171 152 147 147 174 152 126 128 104 98 104 88 97 113 126 140 146 144
344 343 341 341 340 339 339 339 342 345 347 352 357 358 359 359 351 344 340 338 338 341 345 340 324 320 332 343 338 330 325 321 301 267 289 259 167 156 149 160 167 163 167 168 163 162 153 154 154 138 120 124 199 174 181 199 169 206 208 216 247 230 256 283 197 191 183 146 146 163 171 158 149 145 171 145 136 153 150 147 132 125 132 130 137 146 147 145
343 342 340 340 339 339 338 338 343 346 347 350 354 355 356 356 351 343 336 334 333 336 343 341 327 310 322 337 339 332 326 333 287 250 358 124 161 150 149 160 162 160 166 168 165 166 150 142 142 123 109 123 243 192 209 225 189 200 188 225 260 269 295 286 208 170 136 140 147 156 158 155 150 145 154 136 137 188 192 181 157 147 146 143 149 154 150 149
342 340 339 340 338 339 339 339 343 346 347 350 352 352 352 351 350 343 333 328 326 330 340 338 327 310 317 335 338 331 337 69 240 244 26 150 158 150 150 158 158 154 158 160 153 149 143 141 139 107 101 129 187 176 227 224 209 251 233 251 273 296 295 288 102 127 125 122 138 152 162 153 139 150 168 158 164 201 189 179 154 148 151 150 155 156 152 153
341 339 339 339 339 339 340 341 346 346 347 349 350 351 350 346 346 343 330 321 318 322 336 335 323 310 319 336 335 332 14 155 273 244 129 157 159 153 151 163 161 149 153 155 142 138 140 139 141 131 132 148 191 201 244 221 183 252 269 266 267 267 264 265 136 149 140 134 158 166 157 135 139 170 180 177 185 156 152 154 146 152 156 153 155 158 157 159
339 339 339 339 339 340 341 344 346 346 346 348 348 349 347 342 343 341 328 315 310 314 330 332 317 310 327 338 334 7 76 257 267 176 154 159 162 158 157 166 164 155 153 151 141 141 140 141 154 141 135 165 205 211 254 244 187 226 271 279 272 261 251 256 183 167 161 158 167 149 137 154 165 167 172 188 186 137 144 143 144 151 154 153 156 161 161 161
339 340 340 339 341 342 343 345 346 345 346 346 346 347 344 340 340 337 328 308 299 310 322 325 311 312 333 345 357 19 351 262 225 167 154 157 164 166 164 164 166 167 159 155 155 150 138 146 164 140 142 196 194 192 247 280 218 219 248 265 273 265 256 259 197 169 172 161 141 137 156 176 175 146 167 190 170 146 144 138 144 148 152 159 161 161 161 162
340 341 340 341 344 345 345 346 346 345 345 345 345 344 341 339 338 335 326 301 286 300 315 312 299 321 343 7 83 64 241 255 165 176 161 160 170 174 174 166 169 175 167 166 165 157 153 155 173 159 162 200 191 219 229 295 239 212 234 259 272 276 272 264 204 173 171 157 138 155 168 173 171 138 170 187 162 151 142 141 148 150 158 165 164 163 164 165
341 341 340 342 344 345 346 347 347 346 345 344 343 341 338 338 336 331 319 293 268 282 304 282 292 345 4 55 88 114 209 355 79 186 174 169 174 178 183 176 173 176 168 169 169 162 159 163 180 158 137 184 194 253 205 156 263 255 262 274 267 272 279 259 205 173 157 157 157 159 161 174 192 181 197 182 157 150 141 146 153 154 164 168 165 165 166 170
340 340 340 342 343 344 347 348 347 346 345 344 341 339 337 336 333 324 308 277 247 257 270 248 292 10 64 86 103 195 205 28 80 181 183 179 178 182 189 186 181 179 168 162 179 177 164 173 183 139 92 217 234 277 265 222 283 296 290 297 282 289 293 254 179 165 152 153 165 138 103 155 217 275 212 169 153 152 146 151 159 160 168 170 166 165 168 173
338 339 340 342 343 344 347 347 347 346 345 343 340 338 337 335 330 315 290 254 235 231 226 225 178 162 102 75 176 214 168 41 73 176 190 188 185 191 197 194 191 189 179 166 188 188 173 177 174 129 206 176 310 279 299 279 291 287 283 308 298 329 314 253 148 162 165 151 161 128 78 207 220 237 177 156 152 153 151 155 163 165 170 172 166 165 171 174
338 340 341 342 344 345 346 346 346 345 343 342 339 339 338 334 328 311 268 226 221 211 203 199 172 162 128 330 227 199 173 1 36 183 194 192 191 198 205 205 204 201 194 183 191 191 183 187 166 134 217 79 299 263 322 314 311 290 276 111 303 348 323 281 112 154 164 148 165 152 140 240 220 216 160 153 155 151 154 161 167 168 172 175 169 166 173 175
338 340 341 342 344 344 344 345 345 343 342 341 340 341 340 337 332 319 256 212 204 186 184 180 164 143 134 264 252 175 222 298 245 204 198 194 186 193 210 209 206 204 200 190 186 191 190 195 158 93 262 202 252 307 339 327 344 313 292 48 348 356 289 313 62 151 152 163 175 170 271 259 228 198 165 161 158 154 160 166 169 171 173 177 174 170 175 179
338 340 342 343 344 344 342 343 343 342 341 341 341 343 342 341 335 328 234 194 181 166 168 157 161 142 57 285 271 185 222 260 253 226 208 198 185 187 211 204 202 201 202 195 171 190 187 181 119 106 274 292 23 340 342 333 352 3 331 310 340 29 267 320 69 164 156 159 179 175 266 274 260 175 161 167 162 158 163 168 171 174 176 179 178 174 177 182
339 342 343 343 344 342 340 340 342 341 340 341 344 346 347 352 357 33 127 152 148 149 150 136 163 154 78 285 282 128 196 243 313 275 222 206 198 197 186 178 183 189 200 203 201 197 171 160 127 170 243 336 142 356 1 1 345 357 64 255 296 38 298 326 358 189 146 113 181 209 234 273 285 164 157 167 169 164 164 170 174 175 179 180 179 178 178 182
341 343 343 343 343 341 338 339 341 339 339 342 347 351 8 41 72 101 109 116 124 124 115 123 154 152 273 279 291 103 252 309 343 323 230 214 208 193 156 145 146 155 160 188 208 198 150 157 164 162 277 343 149 106 65 357 310 315 18 21 261 75 331 323 336 265 141 129 188 223 236 256 297 162 160 168 172 170 170 176 177 178 181 181 180 181 182 184
343 344 343 342 342 340 338 339 340 339 338 344 353 10 65 87 96 102 108 113 113 100 79 84 108 105 253 280 286 256 296 306 321 320 253 218 208 196 161 135 120 125 116 64 169 156 144 177 120 127 312 133 135 113 139 226 204 195 45 52 323 1 355 304 315 272 189 191 203 210 235 256 282 164 167 171 172 178 180 179 179 180 182 183 184 184 184 188
344 343 342 341 341 339 338 339 341 339 338 348 7 65 89 88 99 99 111 118 115 107 106 234 160 135 223 259 288 297 304 303 303 286 222 185 193 195 155 119 116 113 117 87 109 172 150 102 95 166 213 163 172 161 172 201 163 149 149 133 244 306 307 272 281 262 197 200 231 205 227 248 241 179 179 175 174 183 184 178 181 184 185 187 189 191 188 191
344 342 340 339 339 337 337 340 341 338 340 352 11 89 75 37 44 356 6 160 210 208 209 212 190 217 282 263 294 319 318 314 312 264 194 167 168 169 119 78 88 80 119 142 171 201 146 140 188 192 184 186 201 190 181 183 145 128 126 140 256 274 285 260 267 274 196 173 243 221 223 243 230 191 188 179 177 184 182 182 187 186 189 192 193 196 194 193
343 340 337 337 336 335 336 340 340 339 344 359 19 74 99 50 36 307 307 295 259 233 234 226 198 240 271 267 295 346 355 343 342 337 185 170 150 150 168 35 85 86 211 166 149 125 137 180 214 198 187 196 196 180 169 155 123 104 112 308 306 261 260 254 249 277 228 171 255 239 227 250 240 204 191 180 182 189 187 185 188 188 191 195 196 199 198 192
342 338 336 335 334 333 336 340 341 342 352 14 48 86 136 26 352 270 259 312 292 255 233 242 217 256 270 273 273 273 69 3 337 334 183 156 131 159 190 64 117 168 256 122 119 120 159 212 231 218 192 181 165 154 145 139 146 125 113 86 290 260 282 287 267 295 49 169 272 252 210 249 246 217 196 187 188 194 194 191 189 187 188 194 198 198 195 190
342 339 337 335 334 333 337 340 343 355 358 21 75 84 22 2 1 311 174 291 295 287 231 223 194 237 275 280 238 168 120 167 296 304 212 148 126 175 134 95 137 151 105 117 131 147 179 239 230 210 158 146 221 147 120 103 106 159 150 151 247 250 42 300 285 335 22 219 251 231 207 263 259 227 206 197 194 194 197 197 193 189 191 197 197 194 192 191
343 342 340 336 335 334 337 341 357 7 351 31 96 54 7 5 11 17 100 345 301 295 236 207 192 200 242 266 174 148 136 191 177 273 219 135 107 148 143 137 135 126 169 156 135 144 210 245 204 151 134 156 212 296 112 120 296 251 200 191 205 174 173 230 282 335 335 295 253 198 14 305 274 235 222 200 193 196 195 193 194 199 203 201 197 195 195 194
346 345 341 338 336 334 338 348 66 359 350 121 96 12 1 4 355 29 64 52 325 295 259 208 214 214 226 188 165 169 143 212 208 240 205 137 128 134 159 145 127 169 193 139 128 138 250 251 150 121 141 151 176 250 186 162 207 304 231 207 189 168 205 239 295 353 357 341 296 89 49 306 297 259 227 187 189 195 185 189 197 202 204 199 198 200 199 197
348 346 342 340 336 336 345 42 359 352 17 116 27 352 355 354 329 146 92 49 359 295 308 183 198 215 244 183 168 143 74 301 250 235 135 143 136 113 121 155 80 176 172 134 136 159 262 262 139 148 174 144 167 253 221 160 141 291 243 201 182 175 206 239 256 42 40 276 284 76 95 274 309 285 222 187 193 196 181 192 200 199 200 199 201 202 199 199
348 346 342 339 338 342 354 331 332 349 97 27 347 347 347 342 256 150 83 40 16 290 327 269 256 100 256 290 118 102 114 256 294 54 58 98 74 58 104 181 202 152 163 114 95 216 197 48 99 155 154 142 176 253 223 161 137 227 230 161 151 171 198 215 186 183 229 265 311 17 106 213 296 284 233 175 180 197 194 200 202 200 201 200 202 205 203 200
349 347 341 340 344 350 357 331 330 359 73 341 336 343 343 333 163 122 82 65 324 299 74 275 313 357 299 340 60 98 194 243 85 354 350 52 38 31 98 188 182 154 109 107 145 250 187 128 165 159 137 155 198 225 202 158 159 236 210 156 152 172 185 183 159 187 256 352 319 320 63 159 275 289 288 145 170 205 210 209 203 198 200 200 203 206 205 202
350 347 340 342 351 359 359 343 334 3 353 345 341 339 336 328 111 65 80 92 323 319 53 351 337 307 331 19 16 11 347 30 98 259 339 35 24 32 107 189 155 128 68 97 157 236 337 172 175 136 124 194 222 237 185 159 195 233 158 148 149 159 174 157 145 162 58 41 270 276 256 143 278 293 45 126 185 215 216 214 206 198 199 202 205 206 204 202
351 346 339 343 350 354 350 338 345 360 348 346 340 333 332 32 73 60 68 88 27 305 322 359 295 307 52 72 4 352 38 24 16 35 25 16 9 25 67 160 98 100 30 43 112 225 322 304 165 111 149 223 234 246 174 175 205 222 77 118 101 64 66 81 95 110 79 304 258 256 210 145 288 294 225 167 237 226 215 212 205 198 202 205 206 205 201 200
350 346 339 339 338 333 337 337 346 347 342 340 336 337 4 47 62 85 93 345 3 327 356 327 292 32 79 111 77 358 42 21 356 37 43 10 20 27 20 17 52 56 16 13 48 328 355 12 356 298 299 331 4 98 94 186 236 101 85 107 109 30 21 44 7 70 119 248 264 250 172 132 148 283 318 324 322 313 259 226 211 204 203 205 204 202 201 200
349 344 336 331 320 302 300 312 323 328 331 334 339 2 78 47 33 87 296 323 342 319 331 284 311 35 84 102 62 15 40 37 7 44 65 32 43 54 51 46 58 70 37 311 338 12 15 18 324 311 336 16 37 56 2 8 33 87 112 88 93 17 19 88 277 163 173 247 260 225 139 131 189 210 343 344 348 350 339 310 262 228 213 205 200 198 196 197
346 341 336 331 320 306 303 305 310 318 326 333 351 49 81 73 47 341 311 332 326 287 303 298 345 50 81 70 53 29 48 42 359 32 56 59 64 65 53 41 44 117 139 209 43 35 35 324 346 356 349 3 47 60 349 335 22 51 128 118 120 129 97 181 236 158 206 242 257 250 203 221 219 166 7 358 353 350 354 354 340 297 240 217 204 198 193 193
344 340 344 346 345 339 330 319 307 310 332 353 35 64 65 77 42 341 341 286 261 334 351 354 6 39 58 55 21 59 63 36 3 39 41 38 49 16 358 14 15 49 114 86 68 80 121 40 353 7 339 348 27 44 272 226 309 327 180 141 127 149 141 182 208 162 184 225 295 302 216 185 169 146 36 12 356 357 4 1 0 356 325 244 202 194 195 197
343 349 8 8 4 356 347 340 323 318 359 44 67 68 66 70 278 315 328 280 290 335 337 3 42 47 32 9 356 33 83 62 19 47 43 42 57 10 343 351 357 18 73 72 40 64 110 121 318 314 293 4 6 318 317 124 178 261 160 102 101 161 152 149 182 175 169 145 112 219 206 238 203 176 25 15 8 10 11 5 7 6 354 338 207 193 197 203
4 33 27 14 4 356 348 343 336 340 28 76 70 55 69 96 266 251 272 292 309 311 332 9 36 46 12 352 360 5 41 72 55 52 37 47 68 19 351 313 338 15 65 106 91 19 85 79 315 328 328 358 6 311 353 81 161 243 60 112 197 169 134 118 181 258 78 116 161 283 351 337 324 336 358 2 8 12 12 9 7 3 360 360 342 239 214 206
39 60 23 11 2 354 351 345 340 351 34 82 77 57 65 44 283 250 280 310 305 359 65 46 19 36 20 22 8 343 4 42 41 56 33 24 39 1 343 308 336 17 35 129 118 64 104 161 308 354 333 311 332 314 326 25 58 106 87 239 240 124 111 107 118 10 46 117 169 26 57 21 12 339 340 356 5 5 5 5 5 4 6 4 351 331 287 231
25 40 10 6 356 349 353 348 338 0 57 74 73 72 80 10 340 303 307 326 348 40 68 80 42 66 70 67 17 340 0 33 14 53 64 29 30 2 351 321 343 6 353 61 94 15 74 73 295 337 304 296 335 30 352 341 3 81 129 262 94 114 133 27 99 139 116 142 126 53 64 46 29 323 336 359 359 355 356 1 7 9 5 359 349 343 328 284
9 39 6 355 352 351 358 345 338 27 65 66 63 65 66 357 345 338 329 348 59 55 54 58 58 64 58 80 65 1 33 60 33 59 73 38 45 40 25 342 326 355 355 39 87 311 28 85 290 309 326 322 357 37 25 329 335 20 36 9 41 114 148 81 86 141 147 158 153 85 40 34 356 316 343 360 350 351 356 358 6 8 5 1 352 345 342 328
18 70 331 348 356 0 358 359 15 49 61 74 96 50 29 8 338 346 357 25 52 54 51 34 32 63 52 48 68 39 42 50 46 67 63 28 65 71 34 24 324 337 360 36 67 47 11 71 39 313 333 16 34 20 36 13 354 12 31 22 4 350 30 80 51 50 112 139 150 113 80 27 303 316 1 1 349 356 1 360 1 0 3 7 2 355 350 346
27 70 313 347 1 10 13 28 44 48 62 56 31 7 25 41 356 347 1 27 51 66 80 76 60 62 62 48 46 31 49 46 32 61 72 30 53 71 26 38 320 314 13 34 34 39 35 82 94 345 357 59 79 10 33 59 46 48 52 27 348 342 52 87 58 345 47 100 131 126 119 164 291 332 17 8 0 359 3 6 2 360 4 8 11 9 1 355
46 86 325 351 3 29 56 50 8 30 77 47 16 19 25 41 17 345 352 17 48 65 56 62 63 49 48 61 47 34 68 57 12 44 92 39 50 17 321 338 308 302 75 69 338 333 104 98 76 36 4 122 160 343 4 22 48 62 55 29 358 11 71 108 134 287 6 40 47 96 114 181 256 350 31 12 2 1 5 11 8 4 5 9 14 16 12 5
65 163 345 3 15 74 74 47 338 20 48 346 11 31 24 41 17 351 3 18 28 55 42 30 33 44 42 44 53 54 64 60 25 40 109 38 37 5 327 342 353 40 69 73 324 346 61 75 63 27 323 301 283 316 350 359 29 42 21 16 18 357 348 156 161 149 63 25 11 60 98 170 249 357 38 12 358 6 12 12 12 7 5 11 15 18 18 13
93 223 331 13 37 81 90 70 23 34 19 359 36 25 13 44 36 13 18 21 12 36 62 35 16 44 43 34 62 68 63 83 52 23 57 71 12 345 357 8 18 40 46 68 207 45 47 68 80 79 21 340 326 337 340 348 17 39 351 354 3 358 359 17 85 68 64 24 84 107 127 182 273 356 29 13 4 12 15 13 14 10 6 10 14 18 19 17
22 190 277 4 35 62 94 159 127 88 40 32 44 27 11 36 39 22 29 40 28 36 66 33 5 46 48 40 59 45 38 77 91 5 39 40 322 331 3 9 17 36 41 52 84 84 95 94 104 122 138 177 198 259 272 312 350 8 350 348 353 1 6 20 65 57 76 208 103 122 181 261 321 13 25 17 12 15 12 11 13 11 9 7 11 19 19 18
48 48 311 341 20 45 60 87 98 99 83 62 52 27 22 33 6 8 39 58 33 36 60 26 353 34 39 48 66 38 23 45 70 81 65 4 321 333 347 357 17 25 27 37 41 65 99 70 86 126 138 167 178 210 245 305 19 9 354 347 345 349 358 38 82 76 128 126 23 197 192 352 1 16 21 15 17 16 7 8 10 7 7 5 6 13 18 19
83 54 359 328 354 18 26 16 35 73 94 113 95 15 3 20 354 355 25 45 16 39 62 23 11 47 48 61 86 46 6 20 37 61 68 338 299 314 333 358 19 13 17 26 16 55 96 56 41 109 118 160 165 185 314 42 64 32 357 337 328 335 352 27 60 117 126 99 341 279 122 52 14 18 22 11 12 16 8 8 7 2 2 4 7 12 16 17
75 110 261 177 39 25 29 1 14 53 55 68 85 50 8 32 49 16 352 357 9 38 77 29 15 34 57 93 111 89 10 22 21 13 11 359 353 343 349 7 7 3 15 19 0 67 102 107 195 115 83 151 149 87 38 65 31 308 308 311 316 327 342 353 311 257 115 126 236 302 62 67 23 20 26 9 5 15 9 1 360 2 6 8 11 15 16 14
63 84 305 11 87 133 166 346 15 55 49 40 52 50 32 43 49 1 321 20 16 9 64 82 14 15 37 65 101 109 119 104 46 322 295 12 16 19 16 6 336 351 15 21 7 73 104 166 197 129 84 23 339 33 88 89 11 330 330 322 316 313 316 328 307 306 45 137 186 8 77 72 26 18 36 21 4 7 8 5 9 12 10 10 14 16 15 14
52 69 310 31 59 28 3 10 31 57 38 30 55 41 32 50 40 358 7 77 98 349 38 104 112 51 49 56 83 111 166 159 150 195 184 97 7 346 68 225 274 342 10 22 357 30 88 140 188 104 82 356 312 24 87 138 165 354 343 342 350 347 349 4 360 1 19 30 17 40 76 66 14 9 44 37 0 8 22 18 18 14 9 10 14 15 13 11
17 264 301 89 51 355 357 8 40 66 32 18 68 51 9 17 21 45 21 29 130 138 118 142 140 82 47 53 81 131 190 165 157 189 182 161 182 197 192 194 181 20 7 13 341 7 74 109 41 67 81 249 277 4 244 269 72 56 358 348 358 1 355 2 31 50 40 350 349 34 59 41 358 353 25 37 12 23 29 21 16 11 10 13 12 11 11 7
8 311 3 95 81 358 3 8 30 70 66 340 344 45 20 308 292 103 79 354 355 91 149 159 146 93 60 60 96 186 202 186 188 207 194 180 198 194 194 206 168 143 141 150 17 1 102 112 114 96 105 234 266 242 221 43 56 45 302 315 327 315 319 16 62 59 44 359 33 49 50 29 356 350 1 17 21 23 20 20 16 4 5 10 9 7 6 3